Regional Weather Roundup
Issued by NWS

Home | Current Version | Previous Version | Graphics & Text | Print | Product List | Glossary On
Versions: 1 2 3 4 5 6 7 8 9 10 11 12 13 14 15 16 17 18 19 20 21 22 23 24 25 26 27 28 29 30 31 32 33 34 35 36 37 38 39 40 41 42 43 44 45 46 47 48 49 50
000
ASUS44 KMEG 240110
RWRTN
TENNESSEE HOURLY STATE WEATHER ROUNDUP
NATIONAL WEATHER SERVICE MEMPHIS TN
800 PM CDT SAT JUL 23 2016

TNZ002-004-019-021-049-052-054-088>092-240200-
WEST TENNESSEE

CITY           SKY/WX    TMP DP  RH WIND       PRES   REMARKS
MEMPHIS INTL   CLOUDY    84  75  74 SW3       29.95R HX  92
NWS MEMPHIS      N/A     82 N/A N/A MISG        N/A
JACKSON        LGT RAIN  79  77  94 SE6       29.95R
DYERSBURG      PTCLDY    81  75  83 MISG      29.93R
UNION CITY     PTCLDY    84  77  79 E3        29.92R HX  94
PARIS          CLEAR     81  75  83 CALM      29.96R
LEXINGTON      CLEAR     79  77  94 CALM      29.95R
$$

TNZ008-025-027-028-033-062-065-066-240200-
NORTH MIDDLE TENNESSEE

CITY           SKY/WX    TMP DP  RH WIND       PRES   REMARKS
NASHVILLE      MOCLDY    83  70  64 S10       29.98R
CLARKSVILLE    CLOUDY    80  76  87 N6        29.97R THUNDER
SMYRNA         PTCLDY    83  72  69 S3        29.98S
COOKEVILLE     CLEAR     79  72  78 CALM      30.00F
CROSSVILLE     CLOUDY    75  68  78 CALM      30.06F
$$

TNZ061-075-076-078-094-096-097-240200-
SOUTH MIDDLE TENNESSEE

CITY           SKY/WX    TMP DP  RH WIND       PRES   REMARKS
FAYETTEVILLE   MOCLDY    73  73 100 S7        30.03R FOG
TULLAHOMA      PTCLDY    73  72  94 SE3       30.03F
WINCHESTER     CLEAR     75  72  88 S5        30.03F
MCMINNVILLE    PTCLDY    75  75 100 CALM      30.03F
COLUMBIA       CLEAR     82  82 100 SE7       29.97S HX  97
SHELBYVILLE    CLEAR     75  75 100 CALM      30.01F
$$

TNZ017-018-042-046-047-240200-
NORTHEAST TENNESSEE

CITY           SKY/WX    TMP DP  RH WIND       PRES   REMARKS
TRI CITIES     MOCLDY    80  68  66 S3        30.01S
ELIZABETHTON   PTCLDY    77  72  83 SE3       30.02S
$$

TNZ012-013-036-069-073-074-240200-
CENTRAL EAST TENNESSEE

CITY           SKY/WX    TMP DP  RH WIND       PRES   REMARKS
KNOXVILLE      CLOUDY    77  71  82 SE6       30.01S
OAK RIDGE      PTCLDY    78  71  79 S6        30.02S
GATLINBURG     CLEAR     77  68  73 W5        30.01R
MORRISTOWN     CLEAR     81  70  69 W9        30.02R
$$

TNZ083-085-099-240200-
SOUTHEAST TENNESSEE

CITY           SKY/WX    TMP DP  RH WIND       PRES   REMARKS
CHATTANOOGA    MOCLDY    83  69  62 S5        30.01S
$$

SKY/WX REPORTED AS FAIR MEANS FEW OR NO CLOUDS BELOW
12 THOUSAND FEET.




USA.gov is the U.S. government's official web portal to all federal, state and local government web resources and services.